Probability
0 0 0 0 0 0 0 0 0 0 0 0 0 0 0 0 0 0 0 0 0 0 0 0 0 0 0 0 0 0 0 0 0 0 0 0 0 0 0 0 0 0 0
0 0 0 0 0 0 0 0 0 0 0 0 0 0 0 0 0 0 0 0 0 0 0 0 0 0 0 0 0 0 0 0 0 0 0 0 0 0 0 0 0 0 0
1 1 0 0 0 0 0 0 0 0 0 0 0 0 0 0 0 0 0 0 0 0 0 0 0 0 0 0 0 0 0 0 0 0 0 0 0 0 0 0 0 0 0
0 0 0 0 0 0 0 0 0 0 0 0 0 0 0 0 0 0 0 0 0 0 0 0 0 0 0 0 0 0 0 0 0 0 0 0 0 0 0 0 0 0 0
0 0 0 0 0 0 0 0 0 0 0 0 0 0 0 0 0 0 0 0 0 0 0 0 0 0 0 0 0 0 0 0 0 0 0 0 0 0 0 0 0 0 0
0 0 0 0 0 0 0 0 0 0 0 0 0 0 0 0 0 0 0 0 0 0 0 0 0 0 0 0 0 0 0 0 0 0 0 0 0 0 0 0 0 0 0
0 0 0 0 0 0 0 0 0 0 0 0 0 0 0 0 0 0 0 0 0 0 0 0 0 0 0 0 0 0 0 0 0 0 0 0 0 0 0 0 0 0 0
1 1 1 1 0 0 0 0 0 0 0 0 0 0 0 0 0 0 0 0 0 0 0 0 0 0 0 0 0 0 0 0 0 0 0 0 0 0 0 0 0 0 0
2 2 2 2 1 1 0 0 0 0 0 0 0 0 0 0 0 0 0 0 0 0 0 0 0 0 0 0 0 0 0 0 0 0 0 0 0 0 0 0 0 0 0
1 2 3 3 3 2 1 0 0 0 0 0 0 0 0 0 0 0 0 0 0 0 0 0 0 0 0 0 0 0 0 0 0 0 0 0 0 0 0 0 0 0 0
1 1 2 3 3 2 1 0 0 0 0 0 0 0 0 0 0 0 0 0 0 0 0 0 0 0 0 0 0 0 0 0 0 0 0 0 0 0 0 0 0 0 0
1 1 1 2 1 1 0 0 0 0 0 0 0 0 0 0 0 0 0 0 0 0 0 0 0 0 0 0 0 0 0 0 0 0 0 0 0 0 0 0 0 0 0
0 0 0 0 0 0 0 0 0 0 0 0 0 0 0 0 0 0 0 0 0 0 0 0 0 0 0 0 0 1 1 0 0 0 0 0 0 0 0 0 0 0 0
0 0 0 0 0 0 0 0 0 0 0 0 0 0 0 0 0 0 0 0 0 0 0 0 0 0 0 0 0 1 1 0 0 0 0 0 0 0 0 0 0 0 0
0 0 0 0 0 0 0 0 0 0 0 0 0 0 0 0 0 0 0 0 0 0 0 0 0 0 0 0 0 0 0 0 0 0 0 0 0 0 0 0 0 0 0
0 0 0 0 0 0 0 0 0 0 0 0 0 0 0 0 0 0 0 0 0 0 0 0 0 0 0 0 0 0 0 0 0 0 0 0 0 0 0 0 0 0 0
0 0 0 0 0 0 0 0 0 0 0 0 0 0 0 0 0 0 0 0 0 0 0 0 0 0 0 0 0 0 0 0 0 0 0 0 0 0 0 0 0 0 0
0 0 0 0 0 0 0 0 0 0 0 0 0 0 0 0 0 0 0 0 0 0 0 0 0 0 0 0 0 0 0 0 0 0 0 0 0 0 0 0 0 0 0
0 0 1 1 1 1 1 1 0 0 1 1 0 0 0 0 0 0 0 0 0 0 0 0 0 0 0 0 0 0 0 0 0 0 0 0 0 0 0 0 0 0 0
1 1 2 2 2 2 2 2 1 0 1 1 1 1 1 0 0 0 0 0 0 0 0 0 0 0 0 0 0 0 0 0 0 0 0 0 0 0 0 0 0 0 0
4 4 4 4 4 3 3 2 1 0 1 1 2 2 2 1 0 0 0 0 0 0 0 0 0 0 0 0 0 0 0 0 0 0 0 0 0 0 0 0 0 0 0
5 5 6 5 5 3 2 1 0 0 0 1 2 3 2 1 0 0 0 0 0 0 0 0 0 0 0 0 0 0 0 0 0 0 0 0 0 0 0 0 0 0 0
5 5 6 5 4 3 1 0 0 0 0 0 1 2 2 1 0 0 0 0 0 0 0 0 0 0 0 0 0 0 0 0 0 0 0 0 0 0 0 0 0 0 0
4 3 3 3 3 2 1 0 0 0 0 0 0 1 1 0 0 0 0 0 0 0 0 0 0 0 0 0 0 0 0 0 0 0 0 0 0 0 0 0 0 0 0
2 1 1 1 1 1 0 0 0 0 0 0 0 0 0 0 0 0 0 0 0 0 0 0 0 0 0 0 0 0 0 0 0 0 0 0 0 0 0 0 0 0 0
1 0 0 0 0 0 0 0 0 0 0 0 0 0 0 0 0 0 0 0 0 0 0 0 0 0 0 0 0 0 0 0 0 0 0 0 0 0 0 0 0 0 0
Wind_Speed
4 4 3 3 3 2 3 2 2 2 1 1 3 5 6 5 5 4 4 11 11 11 11 11 10 10 9 8 8 8 8 8 7 7 6 6 6 7 7 6 6 5 5
5 5 4 3 3 3 3 3 3 3 2 2 3 4 5 5 5 5 4 7 11 11 10 11 10 10 9 9 8 8 8 8 7 7 6 6 5 6 6 6 6 5 5
6 5 4 4 3 3 3 3 2 2 2 2 3 4 4 5 5 6 5 3 5 9 10 10 10 10 9 9 8 8 8 8 8 7 7 6 5 5 5 5 5 5 5
6 5 4 4 4 3 3 3 3 2 1 1 1 2 3 4 5 5 5 4 4 4 7 10 9 9 10 10 9 9 9 9 8 8 8 7 7 6 6 6 6 5 6
6 5 4 4 4 3 3 3 2 2 2 2 2 2 2 3 4 6 5 6 5 4 4 7 10 10 10 10 10 10 9 9 9 9 9 9 9 8 8 7 7 6 6
6 5 4 4 4 3 3 2 3 2 2 2 1 1 1 1 3 3 5 5 5 6 5 5 5 6 11 10 10 10 10 10 10 10 9 9 9 9 8 8 8 8 7
6 5 4 4 4 4 4 4 3 3 2 2 2 2 2 1 1 2 3 3 5 6 5 5 4 4 4 8 9 9 10 9 9 9 8 8 8 8 8 8 8 8 8
6 6 5 4 4 4 4 4 4 3 1 2 3 2 1 3 2 1 2 3 4 4 5 7 5 5 4 3 5 9 9 9 9 8 8 7 7 6 6 7 6 6 7
6 5 6 5 4 4 4 4 4 5 3 1 2 4 3 3 2 2 2 2 3 3 4 4 5 5 5 3 3 6 9 7 8 8 7 6 6 6 6 6 7 6 6
6 6 6 6 5 4 5 5 4 4 4 2 1 1 3 4 3 1 2 2 2 3 4 4 5 5 5 4 4 6 7 7 7 7 6 5 5 5 4 5 6 6 6
5 6 6 5 5 4 5 5 4 4 4 4 3 2 1 1 2 3 1 2 1 2 2 3 3 3 4 4 4 5 7 7 7 5 4 4 3 4 4 4 5 5 5
3 5 6 5 5 5 5 5 5 5 4 4 3 3 3 2 2 3 2 2 2 2 1 1 2 3 3 4 5 7 8 7 6 4 3 2 2 2 2 2 3 3 4
4 6 6 5 4 5 5 5 5 4 5 4 4 3 3 3 3 3 3 2 1 1 1 0 1 2 2 2 3 7 6 6 5 4 3 2 2 1 0 0 1 2 3
5 5 5 5 5 5 5 4 3 4 4 4 5 4 2 2 2 3 4 3 1 1 1 1 1 0 1 2 3 5 4 6 6 5 4 3 2 2 2 1 2 2 3
4 5 5 5 5 5 5 5 4 4 4 4 4 4 2 2 2 2 2 3 5 2 1 1 1 1 1 1 2 2 3 5 6 6 5 4 3 3 3 2 2 2 2
5 6 6 5 5 5 5 4 3 4 4 4 3 3 3 2 1 1 2 2 3 4 2 1 0 1 1 2 3 2 3 5 5 5 4 3 3 3 3 2 2 2 2
5 6 6 5 5 5 5 5 4 5 5 4 4 4 4 3 2 2 2 2 2 3 3 1 1 1 2 3 2 2 2 2 2 3 3 3 2 2 2 2 2 2 2
5 5 4 4 5 5 5 6 6 5 5 5 4 4 3 3 3 2 2 2 2 2 4 3 1 2 2 2 3 3 2 2 2 3 2 2 2 2 3 2 3 2 2
4 4 4 4 4 4 5 5 5 4 4 4 5 5 4 4 3 2 2 2 2 2 3 4 2 1 2 2 3 3 3 2 3 4 4 3 3 3 3 4 3 2 1
4 4 4 4 4 4 4 5 5 5 4 3 3 4 4 4 4 3 2 2 3 3 4 4 3 2 2 2 3 2 2 3 2 3 4 4 4 4 4 3 3 2 1
3 3 3 3 3 3 4 5 6 5 5 4 4 4 4 6 6 4 3 3 4 4 4 4 3 2 2 3 2 1 2 1 2 3 2 3 3 3 3 2 2 2 1
2 3 3 3 3 3 4 7 7 6 5 6 5 5 5 7 9 10 10 8 6 6 5 4 3 3 2 1 1 2 1 2 2 3 2 2 3 2 2 2 3 3 3
3 3 3 3 4 4 6 8 9 7 6 6 6 5 5 6 7 7 11 13 12 12 9 6 6 4 3 1 2 3 3 3 1 3 2 2 3 2 2 3 5 5 5
3 4 4 4 5 5 8 10 12 9 7 7 6 6 7 6 6 8 9 9 9 8 8 7 7 5 4 2 3 3 2 3 2 3 3 2 3 2 3 2 5 7 7
5 4 5 6 6 6 8 10 10 8 8 8 7 7 7 7 9 11 11 10 10 8 11 13 12 10 10 9 6 4 4 4 3 3 3 2 2 3 3 3 5 8 9
6 6 7 6 7 7 9 11 10 7 9 7 7 7 10 10 10 10 9 9 9 6 6 7 8 8 7 8 9 5 3 3 2 1 3 2 2 3 3 3 3 4 5
Wind_Direction
160 157 157 164 174 171 172 172 188 205 191 159 150 145 141 143 148 155 163 167 165 164 163 163 164 164 163 163 164 164 162 162 162 162 163 164 165 166 164 163 162 161 160
164 163 164 171 183 186 179 174 183 188 182 153 147 146 148 153 160 163 165 174 176 173 173 174 174 174 175 177 178 178 176 176 176 175 176 175 176 179 180 181 178 176 178
167 166 166 175 185 182 170 159 163 155 160 145 144 150 155 160 166 171 172 175 181 185 184 185 185 185 187 189 191 190 189 188 187 188 189 189 189 189 190 192 193 194 196
165 163 166 177 177 162 153 151 152 140 142 138 149 164 155 162 171 174 177 182 184 190 195 196 196 194 197 200 202 203 201 198 195 198 200 200 201 202 205 208 210 210 210
164 162 167 169 162 151 153 165 147 146 150 158 165 162 168 167 175 181 187 193 194 194 195 205 203 202 207 210 212 212 211 208 207 208 210 213 213 213 215 218 220 222 223
162 156 164 162 152 144 149 149 148 146 149 157 147 129 191 183 179 187 196 195 197 202 202 206 203 212 217 219 220 220 218 216 214 215 218 221 221 219 220 223 225 227 230
162 156 162 156 150 155 166 157 140 142 139 125 87 30 348 319 217 209 199 190 198 202 197 204 199 200 218 225 227 224 225 223 217 217 220 223 227 225 225 228 231 234 236
170 169 160 161 158 152 156 158 145 138 156 143 129 104 15 338 320 250 198 194 198 194 200 205 200 201 209 211 221 224 225 224 222 220 219 223 227 228 229 230 232 236 240
176 171 163 161 165 162 167 172 162 151 163 182 154 146 153 216 277 312 252 211 194 192 205 198 200 205 209 208 215 228 225 222 222 225 224 223 224 228 231 233 236 239 243
180 176 165 165 170 170 172 181 175 160 150 168 189 181 170 163 159 265 314 286 226 206 207 205 206 204 204 200 203 206 213 211 215 220 221 219 220 225 232 237 242 245 245
189 182 172 169 174 178 181 181 170 165 159 165 171 170 155 135 136 147 233 293 307 256 211 199 197 195 196 197 197 202 205 207 208 211 212 214 216 220 228 239 252 260 263
193 191 180 176 180 181 183 183 177 168 168 163 164 162 162 160 179 163 184 224 240 270 243 200 196 194 193 190 195 193 198 199 195 192 196 196 201 217 237 257 274 286 293
193 198 191 183 183 185 182 174 172 172 170 167 172 177 180 183 170 161 159 188 218 283 340 338 219 189 185 179 185 180 183 175 173 171 167 165 164 154 122 13 338 336 335
193 187 188 189 188 182 181 172 173 182 174 177 184 179 178 193 175 171 167 156 147 340 355 296 341 210 182 165 177 172 165 164 163 162 159 156 149 137 116 89 60 40 23
186 180 182 184 186 181 177 169 179 185 173 179 185 181 181 199 187 186 171 158 152 162 235 284 324 320 164 141 157 149 140 149 156 162 163 161 155 144 130 110 89 71 45
184 175 182 185 185 184 181 175 177 182 174 185 181 178 192 200 177 168 161 152 149 152 177 246 251 340 65 110 112 129 141 142 156 165 168 167 161 146 138 128 112 92 55
178 179 186 188 187 189 184 179 185 179 180 187 186 180 191 182 159 147 133 129 130 133 147 163 40 27 62 81 75 83 90 98 122 136 146 144 144 149 142 126 106 92 66
178 181 182 184 188 187 182 179 188 183 182 186 186 174 184 177 160 153 138 128 133 135 142 148 73 42 48 74 83 83 69 75 88 87 104 101 98 114 124 125 120 111 85
177 178 175 184 186 181 178 177 175 171 178 183 177 170 172 155 157 145 134 141 140 123 122 131 124 60 46 55 67 62 56 37 59 65 62 62 67 95 112 120 108 97 85
168 174 178 178 173 170 167 158 153 153 154 157 158 153 154 149 154 146 135 144 129 111 108 113 108 75 51 35 70 65 42 24 34 39 39 48 57 71 78 97 90 79 67
164 163 153 152 156 160 165 150 147 148 144 132 118 116 121 118 117 118 121 126 123 117 111 108 102 81 54 50 50 41 69 37 32 30 28 28 38 35 28 33 45 39 6
131 134 138 141 146 157 146 147 143 134 130 125 116 104 97 94 95 93 94 95 110 122 122 114 106 104 92 65 42 63 72 65 23 356 40 27 38 24 1 20 14 4 339
133 125 131 133 129 129 135 136 132 126 121 120 122 117 106 94 91 92 83 75 72 80 96 117 113 114 113 110 91 69 61 71 52 327 38 27 7 2 343 10 2 351 338
120 116 112 115 112 109 117 118 113 107 100 94 93 99 102 98 100 105 96 83 72 66 77 84 96 92 92 87 89 103 103 88 50 5 33 49 343 336 339 341 346 351 341
105 100 98 100 103 99 104 112 112 108 99 90 85 88 100 100 102 107 104 99 88 77 77 83 84 81 77 71 71 72 60 67 43 353 2 55 336 331 333 328 335 346 343
105 99 90 87 96 98 98 108 112 111 106 98 84 78 84 97 102 106 105 106 102 94 87 79 68 59 56 51 54 68 90 90 84 356 333 36 347 358 343 321 323 332 336